VE3KSR Weather Reports


Display with metric or nautical units.
time (UTC)temp
F
wind
direction
speed
MPH
gust
MPH
rain 1hr
in
rain 24hr
in
rain mn
in
humidity
%
barometer
mb
20140726130558 59 262 11.0 15.0 0.10 0.00 0.00 89 1013.7
20140726130057 59 273 10.0 12.0 0.10 0.00 0.00 88 1013.8
20140726125557 60 240 10.0 13.0 0.10 0.00 0.00 88 1013.8
20140726125057 59 295 10.0 13.0 0.10 0.00 0.00 89 1013.9
20140726124559 59 269 9.0 14.0 0.10 0.00 0.00 90 1014.1
20140726124058 58 256 9.0 11.0 0.10 0.00 0.00 90 1013.9
20140726123600 58 257 8.0 11.0 0.10 0.00 0.00 90 1014.0
20140726123058 58 257 8.0 10.0 0.10 0.00 0.00 90 1013.9
20140726122558 58 243 8.0 10.0 0.10 0.00 0.00 90 1014.0
20140726122058 58 246 8.0 10.0 0.10 0.00 0.00 90 1014.0
20140726121558 58 288 8.0 10.0 0.10 0.00 0.00 90 1014.3
20140726121059 58 259 8.0 12.0 0.10 0.00 0.00 90 1014.2
20140726120602 58 259 8.0 10.0 0.10 0.00 0.00 90 1014.2
20140726120059 58 266 8.0 9.0 0.10 0.00 0.00 90 1014.2
20140726115601 57 294 8.0 11.0 0.10 0.00 0.00 90 1014.2
20140726115058 57 295 9.0 11.0 0.10 0.00 0.00 91 1014.4
20140726114559 57 294 9.0 12.0 0.10 0.00 0.00 91 1014.3
20140726114058 57 297 9.0 11.0 0.10 0.00 0.00 91 1014.2
20140726113559 56 301 10.0 12.0 0.10 0.00 0.00 91 1014.2
20140726113134 56 305 9.0 11.0 0.10 0.00 0.00 91 1014.2
20140726113100 56 305 9.0 11.0 0.10 0.00 0.00 91 1014.2
20140726112558 56 297 8.0 10.0 0.10 0.00 0.00 91 1014.1
20140726112059 56 301 9.0 11.0 0.10 0.00 0.00 91 1014.2
20140726111558 56 304 8.0 10.0 0.10 0.00 0.00 91 1014.2
20140726111058 56 298 8.0 10.0 0.10 0.00 0.00 91 1014.3
20140726110559 57 291 8.0 10.0 0.10 0.00 0.00 91 1014.0
20140726110059 57 301 9.0 12.0 0.10 0.00 0.00 91 1014.0
20140726105558 57 311 9.0 12.0 0.10 0.00 0.00 91 1013.9
20140726105058 57 309 10.0 13.0 0.10 0.00 0.00 91 1014.0
20140726104558 56 302 9.0 12.0 0.10 0.00 0.00 92 1013.9
20140726104059 56 295 10.0 13.0 0.10 0.00 0.00 92 1013.9
20140726103559 56 300 8.0 11.0 0.10 0.00 0.00 92 1013.9
20140726103059 56 295 9.0 11.0 0.10 0.00 0.00 92 1013.8
20140726102602 56 301 9.0 11.0 0.10 0.00 0.00 92 1013.8
20140726102059 57 298 9.0 11.0 0.10 0.00 0.00 92 1013.7
20140726101558 57 305 10.0 13.0 0.10 0.00 0.00 92 1013.7
20140726101059 57 287 11.0 15.0 0.10 0.00 0.00 92 1013.8
20140726100558 56 305 10.0 14.0 0.10 0.00 0.00 92 1013.8
20140726100544 57 295 10.0 14.0 0.10 0.00 0.00 91 1013.8
20140726100100 56 307 9.0 14.0 0.10 0.00 0.00 92 1013.7
20140726095558 56 302 9.0 12.0 0.10 0.00 0.00 92 1013.9
20140726095058 56 295 9.0 12.0 0.10 0.00 0.00 92 1013.9
20140726094559 56 293 8.0 11.0 0.10 0.00 0.00 91 1013.8
20140726094058 56 293 9.0 11.0 0.10 0.00 0.00 91 1013.8
20140726093558 56 311 9.0 13.0 0.10 0.00 0.00 91 1013.8
20140726093058 56 270 10.0 13.0 0.10 0.00 0.00 91 1013.7
20140726092558 56 263 10.0 14.0 0.10 0.00 0.00 91 1013.9
20140726092058 57 305 10.0 13.0 0.10 0.00 0.00 90 1013.9
20140726091558 57 284 10.0 13.0 0.10 0.00 0.00 90 1013.6
20140726091058 57 295 11.0 14.0 0.10 0.00 0.00 91 1013.7
20140726090558 57 294 11.0 16.0 0.10 0.00 0.00 91 1013.7
20140726090059 57 302 11.0 13.0 0.10 0.00 0.00 91 1013.9
20140726085636 57 295 10.0 14.0 0.10 0.00 0.00 91 1013.8
20140726085558 57 295 10.0 14.0 0.10 0.00 0.00 91 1013.8
20140726085058 57 301 10.0 13.0 0.10 0.00 0.00 91 1013.7
20140726084559 56 301 10.0 13.0 0.10 0.00 0.00 90 1013.8
20140726084100 56 301 10.0 13.0 0.10 0.00 0.00 90 1013.6
20140726083559 56 271 8.0 11.0 0.10 0.00 0.00 90 1013.6
20140726083058 56 266 9.0 11.0 0.10 0.00 0.00 90 1013.5
20140726082604 56 269 9.0 11.0 0.10 0.00 0.00 90 1013.5
20140726082104 56 269 9.0 12.0 0.10 0.00 0.00 90 1013.6
20140726081559 56 263 9.0 11.0 0.10 0.00 0.00 90 1013.5
20140726081058 56 262 10.0 11.0 0.10 0.00 0.00 90 1013.5
20140726080558 56 257 9.0 10.0 0.10 0.00 0.00 89 1013.5
20140726080058 56 257 10.0 11.0 0.10 0.00 0.00 88 1013.5
20140726075559 56 259 10.0 11.0 0.10 0.00 0.00 88 1013.5
20140726075058 57 260 10.0 12.0 0.10 0.00 0.00 88 1013.5
20140726074559 57 271 9.0 12.0 0.10 0.00 0.00 88 1013.5
20140726074059 57 267 9.0 11.0 0.10 0.00 0.00 87 1013.5
20140726073600 57 269 10.0 12.0 0.10 0.00 0.00 87 1013.6
20140726073059 57 266 10.0 11.0 0.10 0.00 0.00 86 1013.5
20140726072558 57 266 10.0 12.0 0.10 0.00 0.00 86 1013.3
20140726072106 57 273 9.0 11.0 0.10 0.00 0.00 86 1013.4
20140726071558 57 295 9.0 12.0 0.10 0.00 0.00 86 1013.4
20140726071059 57 274 10.0 12.0 0.10 0.00 0.00 86 1013.3
20140726070559 57 256 10.0 13.0 0.10 0.00 0.00 86 1013.3
20140726070058 57 263 10.0 13.0 0.10 0.00 0.00 86 1013.4
20140726065558 57 256 10.0 12.0 0.10 0.00 0.00 85 1013.4
20140726065058 57 274 10.0 13.0 0.10 0.00 0.00 85 1013.4
20140726064558 57 273 10.0 12.0 0.10 0.00 0.00 85 1013.4
20140726064102 57 263 10.0 13.0 0.10 0.00 0.00 85 1013.5
20140726063600 57 267 10.0 12.0 0.10 0.00 0.00 85 1013.6
20140726063058 57 270 10.0 12.0 0.10 0.00 0.00 84 1013.6
20140726062558 57 267 10.0 13.0 0.10 0.00 0.00 83 1013.8
20140726062102 57 250 11.0 13.0 0.10 0.00 0.00 83 1013.9
20140726061558 57 266 10.0 12.0 0.10 0.00 0.00 83 1013.8
20140726061059 57 269 10.0 12.0 0.10 0.00 0.00 83 1013.8
20140726060602 57 262 10.0 12.0 0.10 0.00 0.00 82 1013.9
20140726060102 57 267 10.0 14.0 0.10 0.00 0.00 83 1013.8
20140726055559 57 259 11.0 14.0 0.10 0.00 0.00 83 1013.9
20140726055058 57 266 10.0 12.0 0.10 0.00 0.00 83 1014.0
20140726054559 57 277 9.0 11.0 0.10 0.00 0.00 83 1013.9
20140726054100 57 359 10.0 13.0 0.10 0.00 0.00 82 1014.1
20140726053559 57 359 11.0 14.0 0.10 0.00 0.00 82 1014.0
20140726053059 57 359 10.0 14.0 0.10 0.00 0.00 82 1014.1
20140726052600 58 359 10.0 13.0 0.10 0.00 0.00 82 1014.3
20140726052101 57 270 10.0 13.0 0.10 0.00 0.00 81 1014.1
20140726051600 58 285 10.0 13.0 0.10 0.00 0.00 80 1014.2
20140726051059 58 359 11.0 13.0 0.10 0.00 0.00 81 1014.2
20140726050559 58 359 10.0 13.0 0.10 0.00 0.00 80 1014.2
20140726050059 58 293 10.0 15.0 0.10 0.00 0.00 81 1014.2
20140726045600 58 257 10.0 13.0 0.10 0.00 0.00 81 1014.3
20140726045059 58 301 11.0 14.0 0.10 0.00 0.00 80 1014.4
20140726044559 58 294 10.0 15.0 0.10 0.00 0.00 82 1014.4
20140726044059 58 273 12.0 15.0 0.10 0.00 0.00 82 1014.2
20140726043559 58 283 11.0 15.0 0.10 0.00 0.00 81 1014.4
20140726043059 58 267 10.0 14.0 0.10 0.00 0.00 81 1014.4
20140726042602 58 263 9.0 13.0 0.10 0.00 0.00 80 1014.4
20140726042104 58 269 9.0 12.0 0.10 0.00 0.00 80 1014.6
20140726041600 58 287 10.0 15.0 0.10 0.00 0.00 79 1014.5
20140726041059 58 293 10.0 13.0 0.10 0.00 0.00 80 1014.5
20140726040559 58 293 11.0 14.0 0.10 0.00 0.00 79 1014.4
20140726040101 58 300 11.0 14.0 0.10 0.00 0.00 79 1014.4
20140726035559 58 285 11.0 15.0 0.10 0.00 0.00 78 1014.4
20140726035059 58 301 9.0 12.0 0.10 0.00 0.00 81 1014.2
20140726034559 58 267 10.0 13.0 0.10 0.00 0.00 81 1014.3
20140726034134 58 264 10.0 14.0 0.10 0.00 0.00 81 1013.9
20140726034059 58 264 10.0 14.0 0.10 0.00 0.00 81 1013.9
20140726033559 57 259 10.0 12.0 0.10 0.00 0.00 82 1014.2
20140726033102 57 276 10.0 11.0 0.10 0.00 0.00 83 1014.1
20140726032600 57 267 10.0 14.0 0.10 0.00 0.00 83 1014.0
20140726032101 57 260 10.0 12.0 0.10 0.00 0.00 83 1013.8
20140726031603 57 263 10.0 11.0 0.10 0.00 0.00 83 1014.0
20140726031059 57 264 10.0 12.0 0.10 0.00 0.00 83 1013.8
20140726030602 57 259 10.0 12.0 0.10 0.00 0.00 83 1014.0
20140726030059 57 262 10.0 13.0 0.10 0.00 0.00 82 1014.0
20140726025601 57 260 11.0 12.0 0.10 0.00 0.00 83 1014.1
20140726025103 57 256 11.0 15.0 0.10 0.00 0.00 82 1014.0
20140726024601 57 266 10.0 14.0 0.10 0.00 0.00 82 1013.9
20140726024059 58 274 10.0 13.0 0.10 0.00 0.00 82 1014.1
20140726023559 57 259 11.0 13.0 0.10 0.00 0.00 82 1014.1
20140726023217 57 259 11.0 13.0 0.10 0.00 0.00 83 1014.1
20140726023059 57 259 11.0 13.0 0.10 0.00 0.00 83 1014.1
20140726022559 57 255 11.0 13.0 0.10 0.00 0.00 83 1014.2
20140726022059 57 264 10.0 13.0 0.10 0.00 0.00 83 1014.2
20140726021600 57 266 10.0 12.0 0.10 0.00 0.00 83 1014.2
20140726021059 57 255 10.0 12.0 0.10 0.00 0.00 83 1014.3
20140726020559 57 249 11.0 13.0 0.10 0.00 0.00 83 1014.3
20140726020059 58 252 9.0 10.0 0.10 0.00 0.00 83 1014.4
20140726015600 58 257 9.0 10.0 0.10 0.00 0.00 83 1014.4
20140726015100 58 255 9.0 11.0 0.10 0.00 0.00 83 1014.3
20140726014559 58 257 10.0 13.0 0.10 0.00 0.00 83 1014.3
20140726014100 58 250 10.0 12.0 0.10 0.00 0.00 83 1014.2
20140726013601 58 263 10.0 12.0 0.10 0.00 0.00 83 1014.2
20140726013100 58 250 9.0 11.0 0.10 0.00 0.00 83 1014.3
20140726012602 58 250 9.0 11.0 0.10 0.00 0.00 83 1014.2
20140726012059 58 246 9.0 11.0 0.10 0.00 0.00 82 1014.2
20140726011601 58 257 9.0 10.0 0.10 0.00 0.00 82 1014.2
20140726011105 58 242 9.0 11.0 0.10 0.00 0.00 82 1014.0
20140726010559 58 262 9.0 12.0 0.10 0.00 0.00 81 1014.1
20140726010101 58 266 9.0 11.0 0.10 0.00 0.00 81 1014.2
20140726005559 59 246 11.0 13.0 0.10 0.00 0.00 81 1014.1
20140726005059 59 257 10.0 13.0 0.10 0.00 0.00 81 1014.2
20140726004601 59 263 10.0 12.0 0.10 0.00 0.00 81 1014.1
20140726004100 59 250 10.0 12.0 0.10 0.00 0.00 80 1014.0
20140726003600 59 252 9.0 12.0 0.10 0.00 0.00 80 1014.1
20140726003101 60 252 10.0 13.0 0.10 0.00 0.00 79 1014.1
20140726002600 60 255 10.0 12.0 0.10 0.00 0.00 79 1014.1
20140726002059 60 252 9.0 13.0 0.10 0.00 0.00 78 1014.0
20140726001600 60 264 9.0 12.0 0.10 0.00 0.00 78 1014.3
20140726001102 61 252 10.0 12.0 0.10 0.00 0.00 78 1014.3
20140726000600 61 255 10.0 12.0 0.10 0.00 0.00 78 1014.4
20140726000100 61 253 11.0 15.0 0.10 0.00 0.00 77 1014.4
20140725235602 61 256 12.0 15.0 0.10 0.00 0.00 78 1014.3
20140725235100 61 260 12.0 15.0 0.10 0.00 0.00 77 1014.3
20140725234601 61 245 13.0 17.0 0.10 0.00 0.00 70 1014.3
20140725234059 61 256 12.0 16.0 0.10 0.00 0.00 76 1014.3
20140725233600 62 245 14.0 19.0 0.10 0.00 0.00 75 1014.3
20140725233100 62 246 16.0 21.0 0.10 0.00 0.00 78 1014.4
20140725232559 62 252 16.0 22.0 0.10 0.00 0.00 76 1014.3
20140725232100 62 250 15.0 21.0 0.10 0.00 0.00 75 1014.3
20140725231600 62 269 14.0 20.0 0.10 0.00 0.00 76 1014.4
20140725231101 63 246 15.0 22.0 0.10 0.00 0.00 75 1014.3
20140725230600 63 252 15.0 20.0 0.10 0.00 0.00 75 1014.3
20140725230101 63 253 15.0 20.0 0.10 0.00 0.00 74 1014.3
20140725225559 64 255 13.0 17.0 0.10 0.00 0.00 71 1014.4
20140725225059 65 253 11.0 14.0 0.10 0.00 0.00 66 1014.4
20140725224600 64 253 9.0 12.0 0.10 0.00 0.00 63 1014.3
20140725224100 64 300 12.0 16.0 0.10 0.00 0.00 63 1014.3
20140725223600 64 263 12.0 17.0 0.10 0.00 0.00 61 1014.2
20140725223059 64 273 14.0 18.0 0.10 0.00 0.00 62 1014.2
20140725222559 64 281 13.0 17.0 0.10 0.00 0.00 61 1014.3
20140725222059 64 248 14.0 19.0 0.10 0.00 0.00 59 1014.4
20140725221600 64 264 14.0 18.0 0.10 0.00 0.00 61 1014.3
20140725221059 64 302 9.0 12.0 0.10 0.00 0.00 61 1014.2
20140725220600 64 259 11.0 15.0 0.10 0.00 0.00 62 1014.3
20140725220059 64 249 11.0 14.0 0.10 0.00 0.00 62 1014.3
20140725215600 64 264 10.0 14.0 0.10 0.00 0.00 64 1014.5
20140725215059 64 300 13.0 18.0 0.10 0.00 0.00 62 1014.6
20140725214559 64 255 11.0 16.0 0.10 0.00 0.00 62 1014.6
20140725214102 64 255 14.0 18.0 0.10 0.00 0.00 61 1014.8
20140725213600 65 302 9.0 13.0 0.10 0.00 0.00 64 1014.7
20140725213103 65 288 13.0 17.0 0.10 0.00 0.00 64 1015.0
20140725212600 65 293 15.0 20.0 0.10 0.00 0.00 62 1014.7
20140725212100 65 304 14.0 19.0 0.10 0.00 0.00 65 1015.0
20140725211600 65 291 13.0 22.0 0.10 0.00 0.00 63 1014.8
20140725211100 65 259 13.0 17.0 0.10 0.00 0.00 63 1014.8
20140725210600 65 248 11.0 15.0 0.10 0.00 0.00 65 1014.8
20140725210100 65 293 11.0 16.0 0.10 0.00 0.00 62 1015.0
20140725205600 65 291 9.0 14.0 0.10 0.00 0.00 63 1015.0
20140725205100 65 307 12.0 16.0 0.10 0.00 0.00 64 1015.1
20140725204600 65 259 13.0 18.0 0.10 0.00 0.00 63 1015.2
20140725204100 65 273 11.0 17.0 0.10 0.00 0.00 66 1015.1
20140725203600 65 284 13.0 18.0 0.10 0.00 0.00 65 1015.2
20140725203100 65 284 11.0 18.0 0.10 0.00 0.00 65 1015.2
20140725202600 64 304 10.0 13.0 0.10 0.00 0.00 66 1015.4
20140725202100 64 291 13.0 16.0 0.10 0.00 0.00 65 1015.3
20140725201600 65 288 13.0 19.0 0.10 0.00 0.00 64 1015.4
20140725201100 65 269 12.0 15.0 0.10 0.00 0.00 63 1015.6
20140725195600 65 274 13.0 18.0 0.10 0.00 0.00 63 1015.6
20140725195100 65 297 14.0 19.0 0.10 0.00 0.00 62 1015.7
20140725194600 65 266 9.0 12.0 0.10 0.00 0.00 64 1015.8
20140725194100 64 297 12.0 15.0 0.10 0.00 0.00 63 1015.8
20140725193601 65 285 12.0 17.0 0.10 0.00 0.00 61 1015.7
20140725193100 65 257 12.0 15.0 0.10 0.00 0.00 63 1015.8
20140725192600 64 271 8.0 12.0 0.10 0.00 0.00 66 1015.9
20140725192100 64 301 11.0 15.0 0.10 0.00 0.00 66 1015.9
20140725191600 64 298 12.0 16.0 0.10 0.00 0.00 67 1016.0
20140725191100 64 288 13.0 17.0 0.10 0.00 0.00 67 1016.1
20140725190600 64 283 11.0 16.0 0.10 0.00 0.00 67 1016.2
20140725190100 64 294 13.0 18.0 0.10 0.00 0.00 67 1016.1
20140725185600 64 294 8.0 10.0 0.10 0.00 0.00 66 1016.2
20140725185100 64 305 9.0 13.0 0.10 0.00 0.00 66 1016.2
20140725184600 65 319 6.0 10.0 0.10 0.00 0.00 65 1016.3
20140725184100 64 309 7.0 9.0 0.10 0.00 0.00 66 1016.4
20140725183600 64 285 11.0 16.0 0.10 0.00 0.00 66 1016.6
20140725183100 63 311 10.0 14.0 0.10 0.00 0.00 66 1016.5
20140725182600 63 300 10.0 13.0 0.10 0.00 0.00 65 1016.6
20140725182100 63 290 9.0 13.0 0.10 0.00 0.00 66 1016.7
20140725181600 63 314 9.0 12.0 0.10 0.00 0.00 66 1016.8
20140725181100 62 314 9.0 13.0 0.10 0.00 0.00 66 1016.9
20140725180600 64 304 9.0 13.0 0.10 0.00 0.00 66 1017.0
20140725180101 64 300 11.0 15.0 0.10 0.00 0.00 65 1016.9
20140725175600 63 294 11.0 16.0 0.10 0.00 0.00 66 1017.0
20140725175100 63 314 9.0 15.0 0.10 0.00 0.00 67 1016.9
20140725174600 63 295 9.0 13.0 0.10 0.00 0.00 68 1017.1
20140725174100 64 300 10.0 15.0 0.10 0.00 0.00 65 1017.1
20140725173600 64 301 6.0 10.0 0.10 0.00 0.00 66 1017.2
20140725173101 63 302 10.0 14.0 0.10 0.00 0.00 65 1017.4
20140725172600 63 281 11.0 14.0 0.10 0.00 0.00 66 1017.5
20140725172100 63 298 13.0 18.0 0.10 0.00 0.00 66 1017.5
20140725171600 63 300 13.0 19.0 0.10 0.00 0.00 65 1017.6
20140725171100 63 297 13.0 18.0 0.10 0.00 0.00 65 1017.7
20140725170600 63 300 8.0 12.0 0.10 0.00 0.00 67 1017.7
20140725170100 63 291 14.0 18.0 0.10 0.00 0.00 66 1017.6
20140725165600 63 291 13.0 18.0 0.10 0.00 0.00 67 1017.7
20140725165100 63 293 6.0 8.0 0.10 0.00 0.00 69 1017.7
20140725164601 62 294 9.0 11.0 0.10 0.00 0.00 69 1017.5
20140725164101 61 298 9.0 12.0 0.10 0.00 0.00 70 1017.6
20140725163644 63 281 9.0 13.0 0.10 0.00 0.00 68 1017.6
20140725163600 63 281 9.0 13.0 0.10 0.00 0.00 68 1017.6
20140725163101 62 294 11.0 15.0 0.10 0.00 0.00 67 1017.7
20140725162600 62 311 11.0 15.0 0.10 0.00 0.00 67 1017.7
20140725162101 62 354 5.0 7.0 0.10 0.00 0.00 71 1018.0
20140725161601 61 302 13.0 17.0 0.10 0.00 0.00 70 1018.1
20140725161100 61 300 11.0 15.0 0.10 0.00 0.00 70 1018.1
20140725160600 61 283 12.0 17.0 0.10 0.00 0.00 70 1018.0
20140725160106 61 301 9.0 12.0 0.10 0.00 0.00 71 1018.2
20140725155600 61 307 11.0 16.0 0.10 0.00 0.00 71 1018.3
20140725155101 61 304 11.0 14.0 0.10 0.00 0.00 70 1018.4
20140725154600 61 302 7.0 12.0 0.10 0.00 0.00 72 1018.4
20140725154102 60 301 11.0 15.0 0.10 0.00 0.00 72 1018.5
20140725153603 60 301 10.0 14.0 0.10 0.00 0.00 71 1018.5
20140725153100 60 295 9.0 13.0 0.10 0.00 0.00 73 1018.6
20140725152600 60 301 9.0 13.0 0.10 0.00 0.00 73 1018.5
20140725152102 60 294 11.0 16.0 0.10 0.00 0.00 72 1018.6
20140725151600 59 304 9.0 11.0 0.10 0.00 0.00 72 1018.6
20140725151100 59 301 10.0 14.0 0.10 0.00 0.00 72 1018.7
20140725150600 59 298 11.0 14.0 0.10 0.00 0.00 71 1018.9
20140725150101 59 315 6.0 10.0 0.10 0.00 0.00 70 1018.9
20140725145600 59 301 10.0 13.0 0.10 0.00 0.00 70 1019.0
20140725145100 59 297 11.0 13.0 0.10 0.00 0.00 69 1019.2
20140725144601 59 293 8.0 11.0 0.10 0.00 0.00 69 1019.3
20140725144100 59 301 9.0 12.0 0.10 0.00 0.00 69 1019.5
20140725143600 58 302 9.0 12.0 0.10 0.00 0.00 68 1019.3
20140725143100 58 297 9.0 12.0 0.10 0.00 0.00 69 1019.4
20140725142601 58 295 8.0 12.0 0.10 0.00 0.00 71 1019.3
20140725142101 57 294 8.0 11.0 0.10 0.00 0.00 72 1019.4
20140725141600 57 309 9.0 12.0 0.10 0.00 0.00 72 1019.5
20140725141101 57 309 6.0 8.0 0.10 0.00 0.00 73 1019.3
20140725140601 57 287 6.0 9.0 0.10 0.00 0.00 73 1019.3
20140725140102 56 314 9.0 11.0 0.10 0.00 0.00 71 1019.3
20140725135601 57 298 8.0 12.0 0.10 0.00 0.00 72 1019.3
20140725135137 57 246 8.0 10.0 0.10 0.00 0.00 75 1019.2
20140725135101 57 246 8.0 10.0 0.10 0.00 0.00 75 1019.2
20140725134602 56 300 7.0 9.0 0.10 0.00 0.00 76 1019.2
20140725134100 55 298 8.0 9.0 0.10 0.00 0.00 77 1019.1
20140725133600 56 249 5.0 8.0 0.10 0.00 0.00 79 1019.2
20140725133101 56 260 6.0 8.0 0.10 0.00 0.00 80 1019.1
20140725132601 56 359 3.0 6.0 0.10 0.00 0.00 81 1018.9
20140725132101 56 224 5.0 7.0 0.10 0.00 0.00 82 1019.0
20140725131604 55 262 6.0 7.0 0.10 0.00 0.00 82 1019.2
20140725131101 55 259 5.0 7.0 0.10 0.00 0.00 82 1019.3